Location: G�ppingen
(48.7089°N, 9.6563°E)
Time: 06:25:38
(UTC+02:00)

M-CUBED/EXP-1 PRIME - Pass Details

Date: 20 March 2019
Orbit: 430 x 671 km, 101.7° (Epoch: 22 April)

Event Time Altitude Azimuth Distance (km) Brightness Sun altitude
Rises 22:16:35 0° 3° (N) 2,884 ? -33.6°
Reaches altitude 10° 22:19:47 10° 337° (NNW) 2,021 ? -33.9°
Maximum altitude 22:21:50 13° 309° (NW) 1,834 ? -34.1°
Drops below altitude 10° 22:23:55 10° 281° (W) 2,062 ? -34.4°
Sets 22:27:15 0° 255° (WSW) 2,997 ? -34.7°
